Location: Unspecified
(0.0000°N, 0.0000°E)
Time: 20:25:52
(UTC+00:00)

Cosmos 2251 - Visible Passes

Search period start: 12 January 2025 00:00
Search period end: 22 January 2025 00:00
Orbit: 764 x 799 km, 74.0° (Epoch: 12 January)

Date Brightness Start Highest point End Pass type
(mag) Time Alt. Az. Time Alt. Az. Time Alt. Az.
12 Jan 7.0 05:41:19 10° SSE 05:46:02 34° ESE 05:50:43 10° NE visible
13 Jan 8.0 05:09:25 10° SSE 05:13:02 19° ESE 05:16:37 10° ENE visible
14 Jan 8.2 18:53:29 10° WNW 18:56:34 15° WSW 18:59:40 10° SW visible
16 Jan 5.9 05:11:03 10° S 05:16:07 52° ESE 05:21:10 10° NNE visible
17 Jan 7.1 04:38:41 10° SSE 04:43:07 28° ESE 04:47:32 10° NE visible
18 Jan 7.9 04:07:06 10° SE 04:10:07 15° ESE 04:13:07 10° ENE visible
19 Jan 5.1 05:14:05 10° SSW 05:19:11 55° WNW 05:24:16 10° N visible
20 Jan 5.0 04:40:58 10° S 04:46:12 80° E 04:51:24 10° NNE visible
21 Jan 6.1 04:08:17 10° S 04:13:13 43° ESE 04:18:07 10° NNE visible
